Latest Coastal Weather Observations for Smithton

IDV60701

Issued at 2:45 am EST Friday 25 April 2014 (issued every 10 minutes, with the page automatically refreshed every 10 minutes)

About coastal observations | Map of coastal stations | Coastal observations for VIC | Marine services | Other Formats
Station Details ID: 091292 Name: SMITHTON AERODROME Lat: -40.83 Lon: 145.08 Height: 7.5 m
Data from the previous 72 hours. | See also: Recent months at Smithton
Date/Time
EST
Temp

°C
Wind Pressure Rain
since 9am
mm
Weather Cloud Vis
km
Sea
Height
m
Swell
Dir
 
Speed
knots
Gust
knots
hPa Trend Height
m
Period
s
Dir
25/02:30am 5.3 SSE 5 6 1020.3 - 0.8 - - - - - - -
25/02:00am 4.7 SSE 3 6 1020.5 - 0.8 - - - - - - -
25/01:30am 3.4 SSE 5 6 1020.4 - 0.8 - - - - - - -
25/01:00am 3.9 SSE 4 6 1020.6 - 0.8 - - - - - - -
25/12:30am 5.7 CALM 0 0 1020.5 - 0.8 - - - - - - -
25/12:00am 5.1 SSE 3 4 1020.5 - 0.8 - - - - - - -
 
Date/Time
EST
Temp

°C
Wind Pressure Rain
since 9am
mm
Weather Cloud Vis
km
Sea
Height
m
Swell
Dir
 
Speed
knots
Gust
knots
hPa Trend Height
m
Period
s
Dir
24/11:30pm 3.7 CALM 0 0 1020.5 - 0.8 - - - - - - -
24/11:00pm 2.3 SSE 1 3 1020.6 - 0.8 - - - - - - -
24/10:30pm 3.9 SSE 2 4 1020.5 - 0.8 - - - - - - -
24/10:00pm 4.3 SSE 1 3 1020.6 - 0.8 - - - - - - -
24/09:30pm 3.7 SSE 4 6 1020.4 - 0.8 - - - - - - -
24/09:00pm 6.0 S 7 9 1020.1 - 0.8 - - - - - - -
24/08:30pm 4.5 CALM 0 0 1019.5 - 0.8 - - - - - - -
24/08:00pm 5.2 W 2 5 1019.1 - 0.8 - - - - - - -
24/07:30pm 6.1 W 4 5 1018.8 - 0.8 - - - - - - -
24/07:00pm 7.0 W 5 5 1018.5 - 0.8 - - - - - - -
24/06:30pm 7.9 W 8 11 1018.1 - 0.8 - - - - - - -
24/06:00pm 6.5 W 8 9 1017.5 - 0.8 - - - - - - -
24/05:30pm 8.4 WSW 9 11 1016.9 - 0.8 - - - - - - -
24/05:00pm 10.2 SW 9 12 1016.6 - 0.8 - - - - - - -
24/04:30pm 11.0 SW 14 19 1016.3 - 0.8 - - - - - - -
24/04:00pm 11.4 SW 13 17 1015.7 - 0.8 - - - - - - -
24/03:30pm 11.6 SW 16 22 1015.3 - 0.8 - - - - - - -
24/03:00pm 11.8 SW 17 25 1014.7 - 0.8 - - - - - - -
24/02:30pm 12.4 SW 16 21 1014.3 - 0.8 - - - - - - -
24/02:00pm 11.5 SW 16 21 1014.3 - 0.8 - - - - - - -
24/01:35pm 13.9 SW 20 30 1013.6 - 0.6 - - - - - - -
24/01:30pm 13.0 SW 22 30 1013.4 - 0.6 - - - - - - -
24/01:00pm 13.1 WSW 19 25 1013.2 - 0.6 - - - - - - -
24/12:30pm 12.1 SW 25 35 1012.9 - 0.6 - - - - - - -
24/12:17pm 12.7 SW 17 27 1012.6 - 0.6 - - - - - - -
24/12:00pm 12.6 SW 16 20 1012.7 - 0.6 - - - - - - -
24/11:30am 10.4 SW 23 33 1012.6 - 0.6 - - - - - - -
24/11:04am 11.6 SW 22 32 1012.0 - 0.4 - - - - - - -
24/11:00am 10.4 SW 23 32 1012.0 - 0.4 - - - - - - -
24/10:54am 11.2 WSW 19 30 1011.6 - 0.4 - - - - - - -
24/10:30am 11.6 WSW 15 19 1011.1 - 0.4 - - - - - - -
24/10:00am 10.6 SW 14 25 1010.9 - 0.4 - - - - - - -
24/09:46am 10.1 SW 15 25 1010.9 - 0.4 - - - - - - -
24/09:30am 10.1 WSW 15 19 1010.2 - 0.4 - - - - - - -
24/09:08am 9.5 WSW 19 35 1010.2 - 0.2 - - - - - - -
24/09:00am 11.1 WSW 16 24 1009.7 - 8.8 - - - - - - -
24/08:38am 11.2 SW 16 28 1009.3 - 8.8 - - - - - - -
24/08:30am 11.2 WSW 16 22 1009.2 - 8.8 - - - - - - -
24/08:00am 10.2 WSW 13 17 1008.4 - 8.6 - - - - - - -
24/07:30am 9.2 WSW 14 17 1007.5 - 8.6 - - - - - - -
24/07:03am 10.1 WSW 15 28 1006.9 - 8.6 - - - - - - -
24/07:00am 9.7 WSW 13 17 1006.8 - 8.6 - - - - - - -
24/06:30am 10.5 WSW 14 20 1006.1 - 8.6 - - - - - - -
24/06:00am 10.8 WSW 13 15 1005.4 - 8.6 - - - - - - -
24/05:30am 10.8 W 8 11 1004.8 - 8.6 - - - - - - -
24/05:00am 10.5 W 5 7 1004.5 - 8.4 - - - - - - -
24/04:30am 10.7 WSW 5 9 1004.4 - 8.4 - - - - - - -
24/04:00am 10.6 WSW 9 13 1004.6 - 7.4 - - - - - - -
24/03:30am 10.6 WSW 13 19 1004.4 - 4.8 - - - - - - -
24/03:06am 11.1 W 24 34 1004.4 - 1.6 - - - - - - -
24/03:00am 13.1 W 25 30 1004.3 - 0.2 - - - - - - -
24/02:56am 14.9 NNW 19 29 1003.1 - 0.2 - - - - - - -
24/02:30am 15.2 NNW 18 25 1003.8 - 0.2 - - - - - - -
24/02:00am 15.0 NNW 15 22 1004.6 - 0.2 - - - - - - -
24/01:30am 15.4 NNW 18 25 1005.1 - 0.2 - - - - - - -
24/01:14am 15.5 NNW 16 26 1005.3 - 0.2 - - - - - - -
24/01:00am 15.3 N 14 20 1005.6 - 0.2 - - - - - - -
24/12:30am 15.5 NNW 15 23 1006.2 - 0.2 - - - - - - -
24/12:00am 14.9 NNW 12 17 1006.9 - 0.2 - - - - - - -
 
Date/Time
EST
Temp

°C
Wind Pressure Rain
since 9am
mm
Weather Cloud Vis
km
Sea
Height
m
Swell
Dir
 
Speed
knots
Gust
knots
hPa Trend Height
m
Period
s
Dir
23/11:30pm 14.4 NNW 11 16 1007.6 - 0.2 - - - - - - -
23/11:00pm 14.2 NNW 13 18 1008.1 - 0.2 - - - - - - -
23/10:30pm 14.3 NNW 12 18 1008.6 - 0.2 - - - - - - -
23/10:00pm 14.4 N 10 14 1009.0 - 0.2 - - - - - - -
23/09:30pm 14.2 NNW 12 15 1009.4 - 0.2 - - - - - - -
23/09:00pm 13.7 NNW 12 15 1009.5 - 0.2 - - - - - - -
23/08:30pm 14.2 NNW 13 17 1009.7 - 0.2 - - - - - - -
23/08:00pm 14.5 NNW 13 20 1010.0 - 0.2 - - - - - - -
23/07:30pm 14.4 NNW 11 16 1010.2 - 0.2 - - - - - - -
23/07:00pm 12.6 NW 6 8 1010.4 - 0.2 - - - - - - -
23/06:30pm 13.1 NNW 7 10 1010.5 - 0.2 - - - - - - -
23/06:00pm 13.5 NNW 8 10 1010.5 - 0.2 - - - - - - -
23/05:30pm 14.0 NNW 6 8 1010.7 - 0.2 - - - - - - -
23/05:00pm 14.2 NW 7 11 1010.8 - 0.2 - - - - - - -
23/04:30pm 15.2 NW 10 13 1011.1 - 0.2 - - - - - - -
23/04:00pm 16.0 NW 12 17 1011.2 - 0.2 - - - - - - -
23/03:30pm 16.1 NW 11 17 1011.3 - 0.2 - - - - - - -
23/03:00pm 15.8 NW 13 16 1011.6 - 0.2 - - - - - - -
23/02:30pm 15.2 NNW 11 15 1011.6 - 0.2 - - - - - - -
23/02:00pm 16.7 NNW 10 15 1011.9 - 0.2 - - - - - - -
23/01:30pm 15.8 NW 10 13 1012.4 - 0.2 - - - - - - -
23/01:00pm 15.8 NW 10 13 1012.8 - 0.2 - - - - - - -
23/12:30pm 15.8 NW 13 17 1013.2 - 0.2 - - - - - - -
23/12:00pm 16.2 NW 13 17 1013.7 - 0.2 - - - - - - -
23/11:30am 16.1 NNW 15 19 1014.1 - 0.2 - - - - - - -
23/11:00am 15.1 NNW 10 13 1014.3 - 0.2 - - - - - - -
23/10:30am 14.3 N 7 12 1014.5 - 0.0 - - - - - - -
23/10:00am 14.6 N 7 10 1014.7 - 0.0 - - - - - - -
23/09:30am 13.7 SSW 5 7 1015.0 - 0.0 - - - - - - -
23/09:00am 10.6 SSW 3 4 1015.3 - 0.8 - - - - - - -
23/08:30am 7.4 SSW 2 3 1015.5 - 0.8 - - - - - - -
23/08:00am 6.5 SSW 4 6 1015.4 - 0.8 - - - - - - -
23/07:30am 7.2 SSW 3 4 1015.1 - 0.8 - - - - - - -
23/07:00am 6.7 SSW 3 5 1015.2 - 0.6 - - - - - - -
23/06:30am 5.7 SSW 5 6 1015.1 - 0.6 - - - - - - -
23/06:00am 5.5 SSW 4 6 1015.1 - 0.6 - - - - - - -
23/05:30am 5.3 SSW 3 4 1015.0 - 0.6 - - - - - - -
23/05:00am 7.3 CALM 0 0 1015.1 - 0.6 - - - - - - -
23/04:30am 8.0 SSW 4 4 1015.1 - 0.6 - - - - - - -
23/04:00am 8.9 SSW 2 5 1015.0 - 0.6 - - - - - - -
23/03:30am 9.6 SSW 4 6 1015.2 - 0.6 - - - - - - -
23/03:00am 9.3 CALM 0 0 1015.3 - 0.2 - - - - - - -
23/02:30am 9.3 SSW 3 4 1015.4 - 0.2 - - - - - - -
23/02:00am 9.1 SSW 2 4 1015.7 - 0.2 - - - - - - -
23/01:30am 9.1 SSW 1 4 1015.8 - 0.2 - - - - - - -
23/01:00am 8.6 SSW 3 5 1016.1 - 0.0 - - - - - - -
23/12:30am 8.6 SSW 3 4 1015.9 - 0.0 - - - - - - -
23/12:00am 8.7 SSW 3 5 1015.8 - 0.0 - - - - - - -
 
Date/Time
EST
Temp

°C
Wind Pressure Rain
since 9am
mm
Weather Cloud Vis
km
Sea
Height
m
Swell
Dir
 
Speed
knots
Gust
knots
hPa Trend Height
m
Period
s
Dir
22/11:30pm 9.1 SSW 3 4 1015.9 - 0.0 - - - - - - -
22/11:00pm 9.5 CALM 0 0 1016.0 - 0.0 - - - - - - -
22/10:30pm 8.9 CALM 0 0 1016.1 - 0.0 - - - - - - -
22/10:00pm 9.0 WSW 3 4 1016.0 - 0.0 - - - - - - -
22/09:30pm 7.8 WSW 3 5 1015.8 - 0.0 - - - - - - -
22/09:00pm 9.7 WSW 4 5 1015.5 - 0.0 - - - - - - -
22/08:30pm 9.6 WSW 7 7 1015.3 - 0.0 - - - - - - -
22/08:00pm 9.6 WSW 7 8 1015.2 - 0.0 - - - - - - -
22/07:30pm 8.8 W 6 6 1014.9 - 0.0 - - - - - - -
22/07:00pm 9.5 W 7 9 1014.7 - 0.0 - - - - - - -
22/06:30pm 10.0 W 6 6 1014.3 - 0.0 - - - - - - -
22/06:00pm 10.5 W 6 7 1014.0 - 0.0 - - - - - - -
22/05:30pm 12.4 W 8 11 1013.8 - 0.0 - - - - - - -
22/05:00pm 14.0 WSW 10 15 1013.4 - 0.0 - - - - - - -
22/04:30pm 14.9 WSW 13 19 1013.2 - 0.0 - - - - - - -
22/04:00pm 15.0 W 14 18 1013.0 - 0.0 - - - - - - -
22/03:30pm 14.8 W 13 18 1012.8 - 0.0 - - - - - - -
22/03:00pm 15.9 WSW 14 20 1012.7 - 0.0 - - - - - - -
22/02:30pm 15.8 WSW 17 23 1012.5 - 0.0 - - - - - - -
22/02:00pm 17.0 SW 18 25 1012.3 - 0.0 - - - - - - -
22/01:30pm 16.8 WSW 16 24 1012.2 - 0.0 - - - - - - -
22/01:00pm 16.3 WSW 14 22 1012.4 - 0.0 - - - - - - -
22/12:30pm 15.8 WSW 17 22 1012.3 - 0.0 - - - - - - -
22/12:00pm 16.2 SW 16 23 1012.2 - 0.0 - - - - - - -
22/11:30am 16.1 WSW 15 19 1012.1 - 0.0 - - - - - - -
22/11:00am 16.4 WSW 15 19 1011.9 - 0.0 - - - - - - -
22/10:30am 16.6 WSW 14 21 1011.5 - 0.0 - - - - - - -
22/10:00am 15.7 WSW 12 16 1011.4 - 0.0 - - - - - - -
22/09:30am 15.5 WSW 14 19 1011.2 - 0.0 - - - - - - -
22/09:00am 14.9 WSW 9 13 1010.9 - 7.6 - - - - - - -
22/08:30am 13.7 WSW 11 14 1010.6 - 7.6 - - - - - - -
22/08:00am 14.0 W 11 14 1010.3 - 7.6 - - - - - - -
22/07:30am 14.4 W 12 17 1009.8 - 7.4 - - - - - - -
22/07:00am 14.3 W 9 11 1009.2 - 7.4 - - - - - - -
22/06:30am 14.7 W 8 10 1009.0 - 7.0 - - - - - - -
22/06:00am 14.9 W 10 13 1008.9 - 7.0 - - - - - - -
22/05:30am 15.0 W 10 12 1008.0 - 7.0 - - - - - - -
22/05:00am 15.5 W 11 15 1008.0 - 7.0 - - - - - - -
22/04:30am 15.9 W 12 15 1007.7 - 7.0 - - - - - - -
22/04:00am 16.2 WNW 12 16 1007.4 - 7.0 - - - - - - -
22/03:30am 16.1 NW 10 13 1007.5 - 6.8 - - - - - - -
22/03:10am 16.4 NW 15 25 1007.3 - 6.8 - - - - - - -
22/03:00am 16.6 NW 18 25 1007.1 - 6.8 - - - - - - -

Other Formats:

Comma delimited format used in spreadsheet applications
http://www.bom.gov.au/fwo/IDV60701/IDV60701.94953.axf

JavaScript Object Notation format (JSON) in row-major order
http://www.bom.gov.au/fwo/IDV60701/IDV60701.94953.json